TimeCET,TemperatureF,Dew PointF,Humidity,Sea Level PressureIn,VisibilityMPH,Wind Direction,Wind SpeedMPH,Gust SpeedMPH,PrecipitationIn,Events,Conditions,WindDirDegrees,DateUTC
12:00 AM,50.0,42.8,76,29.53,5.0,SE,13.8,28.8,N/A,,Mostly Cloudy,130,2013-03-04 23:00:00
12:30 AM,50.0,42.8,76,29.53,5.6,SE,15.0,29.9,N/A,,Mostly Cloudy,140,2013-03-04 23:30:00
1:00 AM,50.0,42.8,76,29.50,5.6,SE,21.9,35.7,N/A,,Mostly Cloudy,130,2013-03-05 00:00:00
1:30 AM,50.0,42.8,76,29.47,5.6,SE,25.3,38.0,N/A,,Mostly Cloudy,130,2013-03-05 00:30:00
2:00 AM,50.0,42.8,76,29.47,5.6,SE,26.5,40.3,N/A,,Mostly Cloudy,140,2013-03-05 01:00:00
3:00 AM,50.0,42.8,76,29.50,5.6,SE,19.6,33.4,N/A,,Mostly Cloudy,130,2013-03-05 02:00:00
3:30 AM,48.2,42.8,82,29.47,5.6,SE,11.5,-,N/A,,Mostly Cloudy,130,2013-03-05 02:30:00
4:00 AM,50.0,42.8,76,29.47,5.6,ESE,10.4,-,N/A,,Mostly Cloudy,120,2013-03-05 03:00:00
4:30 AM,50.0,42.8,76,29.44,5.6,ESE,17.3,28.8,N/A,,Mostly Cloudy,120,2013-03-05 03:30:00
5:00 AM,50.0,42.8,76,29.44,5.6,SE,18.4,-,N/A,,Mostly Cloudy,130,2013-03-05 04:00:00
5:30 AM,50.0,42.8,76,29.44,5.6,ESE,15.0,28.8,N/A,,Scattered Clouds,120,2013-03-05 04:30:00
6:00 AM,48.2,44.6,87,29.44,6.2,ESE,15.0,28.8,N/A,,Scattered Clouds,110,2013-03-05 05:00:00
6:30 AM,48.2,44.6,87,29.44,6.2,East,15.0,29.9,N/A,,Scattered Clouds,100,2013-03-05 05:30:00
7:00 AM,50.0,44.6,82,29.44,6.2,ESE,16.1,29.9,N/A,,Mostly Cloudy,120,2013-03-05 06:00:00
8:00 AM,50.0,44.6,82,29.44,6.2,ESE,17.3,-,N/A,,Mostly Cloudy,120,2013-03-05 07:00:00
8:30 AM,50.0,44.6,82,29.44,6.2,ESE,13.8,-,N/A,,Mostly Cloudy,120,2013-03-05 07:30:00
9:00 AM,50.0,44.6,82,29.47,6.2,SE,15.0,-,N/A,,Mostly Cloudy,130,2013-03-05 08:00:00
9:30 AM,50.0,44.6,82,29.44,6.2,SE,15.0,27.6,N/A,,Mostly Cloudy,130,2013-03-05 08:30:00
10:00 AM,50.0,44.6,82,29.44,6.2,ESE,16.1,-,N/A,,Mostly Cloudy,120,2013-03-05 09:00:00
10:30 AM,51.8,46.4,82,29.44,6.2,ESE,15.0,27.6,N/A,,Mostly Cloudy,120,2013-03-05 09:30:00
11:00 AM,51.8,46.4,82,29.44,6.2,SE,18.4,32.2,N/A,,Mostly Cloudy,130,2013-03-05 10:00:00
11:30 AM,53.6,46.4,77,29.44,6.2,SE,19.6,34.5,N/A,,Mostly Cloudy,140,2013-03-05 10:30:00
12:00 PM,53.6,46.4,77,29.44,6.2,SE,21.9,-,N/A,,Mostly Cloudy,130,2013-03-05 11:00:00
12:30 PM,53.6,46.4,77,29.44,6.2,SE,17.3,-,N/A,,Mostly Cloudy,140,2013-03-05 11:30:00
1:00 PM,55.4,48.2,77,29.42,6.2,SE,18.4,31.1,N/A,,Mostly Cloudy,130,2013-03-05 12:00:00
2:00 PM,53.6,46.4,77,29.42,6.2,SE,18.4,-,N/A,,Mostly Cloudy,140,2013-03-05 13:00:00
2:30 PM,55.4,48.2,77,29.42,6.2,SE,15.0,26.5,N/A,,Mostly Cloudy,130,2013-03-05 13:30:00
3:00 PM,55.4,46.4,72,29.39,6.2,SE,15.0,-,N/A,,Mostly Cloudy,130,2013-03-05 14:00:00
3:30 PM,55.4,46.4,72,29.39,6.2,SE,18.4,-,N/A,,Mostly Cloudy,140,2013-03-05 14:30:00
4:00 PM,53.6,46.4,77,29.39,6.2,SE,17.3,-,N/A,,Scattered Clouds,140,2013-03-05 15:00:00
4:30 PM,53.6,46.4,77,29.39,6.2,SE,19.6,-,N/A,,Scattered Clouds,140,2013-03-05 15:30:00
5:00 PM,53.6,48.2,82,29.39,6.2,ESE,17.3,28.8,N/A,,Scattered Clouds,120,2013-03-05 16:00:00
5:30 PM,53.6,46.4,77,29.39,6.2,ESE,11.5,-,N/A,,Scattered Clouds,110,2013-03-05 16:30:00
6:00 PM,53.6,46.4,77,29.39,6.2,ESE,15.0,26.5,N/A,,Scattered Clouds,120,2013-03-05 17:00:00
6:30 PM,51.8,46.4,82,29.39,6.2,ESE,13.8,27.6,N/A,,Scattered Clouds,120,2013-03-05 17:30:00
7:00 PM,53.6,46.4,77,29.39,6.2,ESE,9.2,-,N/A,,Scattered Clouds,110,2013-03-05 18:00:00
7:30 PM,51.8,46.4,82,29.42,6.2,ENE,8.1,-,N/A,,Mostly Cloudy,70,2013-03-05 18:30:00
8:00 PM,51.8,46.4,82,29.42,6.2,ENE,11.5,-,N/A,,Mostly Cloudy,60,2013-03-05 19:00:00
8:30 PM,51.8,46.4,82,29.42,6.2,ENE,9.2,-,N/A,,Mostly Cloudy,70,2013-03-05 19:30:00
9:00 PM,51.8,46.4,82,29.42,6.2,East,3.5,-,N/A,,Mostly Cloudy,80,2013-03-05 20:00:00
9:30 PM,53.6,48.2,82,29.42,6.2,East,5.8,-,N/A,,Mostly Cloudy,90,2013-03-05 20:30:00
10:00 PM,51.8,48.2,88,29.42,6.2,ENE,3.5,-,N/A,,Mostly Cloudy,60,2013-03-05 21:00:00
10:30 PM,51.8,48.2,88,29.42,6.2,ENE,6.9,-,N/A,,Mostly Cloudy,60,2013-03-05 21:30:00
11:00 PM,51.8,48.2,88,29.42,6.2,Variable,2.3,-,N/A,,Mostly Cloudy,0,2013-03-05 22:00:00
11:30 PM,51.8,46.4,82,29.42,6.2,East,3.5,-,N/A,,Mostly Cloudy,80,2013-03-05 22:30:00